TimePDT,TemperatureF,Dew PointF,Humidity,Sea Level PressureIn,VisibilityMPH,Wind Direction,Wind SpeedMPH,Gust SpeedMPH,PrecipitationIn,Events,Conditions,WindDirDegrees,DateUTC
12:15 AM,57.2,57.2,100,30.08,10.0,Calm,Calm,-,N/A,,Mostly Cloudy,0,2013-08-01 07:15:00
12:35 AM,57.2,55.4,94,30.08,10.0,Calm,Calm,-,N/A,,Mostly Cloudy,0,2013-08-01 07:35:00
12:55 AM,57.2,55.4,94,30.08,10.0,Calm,Calm,-,N/A,,Scattered Clouds,0,2013-08-01 07:55:00
1:15 AM,57.2,55.4,94,30.08,10.0,Calm,Calm,-,N/A,,Scattered Clouds,0,2013-08-01 08:15:00
1:35 AM,57.2,55.4,94,30.08,10.0,Calm,Calm,-,N/A,,Scattered Clouds,0,2013-08-01 08:35:00
1:55 AM,57.2,55.4,94,30.07,10.0,Calm,Calm,-,N/A,,Mostly Cloudy,0,2013-08-01 08:55:00
2:15 AM,57.2,55.4,94,30.07,10.0,Calm,Calm,-,N/A,,Mostly Cloudy,0,2013-08-01 09:15:00
2:35 AM,57.2,55.4,94,30.07,10.0,Calm,Calm,-,N/A,,Scattered Clouds,0,2013-08-01 09:35:00
2:55 AM,55.4,55.4,100,30.07,10.0,Calm,Calm,-,N/A,,Clear,0,2013-08-01 09:55:00
3:15 AM,55.4,55.4,100,30.06,10.0,Calm,Calm,-,N/A,,Partly Cloudy,0,2013-08-01 10:15:00
3:35 AM,55.4,55.4,100,30.06,10.0,Calm,Calm,-,N/A,,Scattered Clouds,0,2013-08-01 10:35:00
3:55 AM,55.4,55.4,100,30.06,10.0,Calm,Calm,-,N/A,,Scattered Clouds,0,2013-08-01 10:55:00
4:15 AM,55.4,55.4,100,30.06,10.0,Calm,Calm,-,N/A,,Scattered Clouds,0,2013-08-01 11:15:00
4:35 AM,55.4,53.6,94,30.07,10.0,Calm,Calm,-,N/A,,Partly Cloudy,0,2013-08-01 11:35:00
4:55 AM,55.4,53.6,94,30.08,10.0,Calm,Calm,-,N/A,,Partly Cloudy,0,2013-08-01 11:55:00
5:15 AM,55.4,53.6,94,30.08,9.0,Calm,Calm,-,N/A,,Scattered Clouds,0,2013-08-01 12:15:00
5:35 AM,55.4,55.4,100,30.08,3.0,Calm,Calm,-,N/A,,Scattered Clouds,0,2013-08-01 12:35:00
5:55 AM,53.6,53.6,100,30.08,3.0,Calm,Calm,-,N/A,,Scattered Clouds,0,2013-08-01 12:55:00
6:15 AM,53.6,53.6,100,30.08,4.0,Calm,Calm,-,N/A,,Mostly Cloudy,0,2013-08-01 13:15:00
6:35 AM,53.6,53.6,100,30.09,4.0,Calm,Calm,-,N/A,,Mostly Cloudy,0,2013-08-01 13:35:00
6:55 AM,55.4,55.4,100,30.09,3.0,Calm,Calm,-,N/A,,Overcast,0,2013-08-01 13:55:00
7:15 AM,55.4,55.4,100,30.10,6.0,Calm,Calm,-,N/A,,Mostly Cloudy,0,2013-08-01 14:15:00
7:35 AM,55.4,55.4,100,30.09,2.5,Calm,Calm,-,N/A,,Mostly Cloudy,0,2013-08-01 14:35:00
7:55 AM,55.4,55.4,100,30.09,8.0,Calm,Calm,-,N/A,,Mostly Cloudy,0,2013-08-01 14:55:00
8:15 AM,55.4,55.4,100,30.09,8.0,Calm,Calm,-,N/A,,Mostly Cloudy,0,2013-08-01 15:15:00
8:35 AM,55.4,55.4,100,30.09,9.0,Calm,Calm,-,N/A,,Mostly Cloudy,0,2013-08-01 15:35:00
8:55 AM,55.4,55.4,100,30.09,10.0,WSW,4.6,-,N/A,,Scattered Clouds,240,2013-08-01 15:55:00
9:15 AM,55.4,55.4,100,30.08,10.0,Calm,Calm,-,N/A,,Mostly Cloudy,0,2013-08-01 16:15:00
9:35 AM,57.2,55.4,94,30.08,10.0,Calm,Calm,-,N/A,,Mostly Cloudy,0,2013-08-01 16:35:00
9:55 AM,57.2,55.4,94,30.08,10.0,Calm,Calm,-,N/A,,Mostly Cloudy,0,2013-08-01 16:55:00
10:15 AM,57.2,55.4,94,30.08,10.0,Calm,Calm,-,N/A,,Mostly Cloudy,0,2013-08-01 17:15:00
10:35 AM,57.2,55.4,94,30.08,10.0,Calm,Calm,-,N/A,,Mostly Cloudy,0,2013-08-01 17:35:00
10:55 AM,59.0,55.4,88,30.08,10.0,Calm,Calm,-,N/A,,Mostly Cloudy,0,2013-08-01 17:55:00
11:15 AM,59.0,55.4,88,30.08,10.0,Calm,Calm,-,N/A,,Mostly Cloudy,0,2013-08-01 18:15:00
11:35 AM,60.8,55.4,82,30.08,10.0,Calm,Calm,-,N/A,,Mostly Cloudy,0,2013-08-01 18:35:00
11:55 AM,62.6,55.4,77,30.08,10.0,SSW,3.5,-,N/A,,Mostly Cloudy,210,2013-08-01 18:55:00
12:15 PM,62.6,55.4,77,30.08,10.0,Calm,Calm,-,N/A,,Mostly Cloudy,0,2013-08-01 19:15:00
12:35 PM,62.6,55.4,77,30.08,10.0,Calm,Calm,-,N/A,,Mostly Cloudy,0,2013-08-01 19:35:00
12:55 PM,62.6,55.4,77,30.08,10.0,SW,4.6,-,N/A,,Overcast,230,2013-08-01 19:55:00
1:15 PM,62.6,55.4,77,30.08,10.0,WSW,8.1,-,N/A,,Overcast,250,2013-08-01 20:15:00
1:35 PM,64.4,55.4,73,30.08,10.0,SW,5.8,-,N/A,,Overcast,230,2013-08-01 20:35:00
1:55 PM,64.4,55.4,73,30.08,10.0,WSW,5.8,-,N/A,,Overcast,240,2013-08-01 20:55:00
2:15 PM,64.4,55.4,73,30.08,10.0,Calm,Calm,-,N/A,,Mostly Cloudy,0,2013-08-01 21:15:00
2:35 PM,64.4,55.4,73,30.09,10.0,West,3.5,-,N/A,,Mostly Cloudy,270,2013-08-01 21:35:00
2:55 PM,64.4,55.4,73,30.09,10.0,WSW,5.8,-,N/A,,Mostly Cloudy,250,2013-08-01 21:55:00
3:15 PM,64.4,55.4,73,30.09,10.0,Calm,Calm,-,N/A,,Mostly Cloudy,0,2013-08-01 22:15:00
3:35 PM,64.4,55.4,73,30.08,10.0,WSW,3.5,-,N/A,,Mostly Cloudy,250,2013-08-01 22:35:00
3:55 PM,66.2,55.4,68,30.08,10.0,Calm,Calm,-,N/A,,Overcast,0,2013-08-01 22:55:00
4:15 PM,66.2,55.4,68,30.07,10.0,Calm,Calm,-,N/A,,Mostly Cloudy,0,2013-08-01 23:15:00
4:35 PM,66.2,55.4,68,30.07,10.0,Calm,Calm,-,N/A,,Mostly Cloudy,0,2013-08-01 23:35:00
4:55 PM,66.2,55.4,68,30.07,10.0,Calm,Calm,-,N/A,,Mostly Cloudy,0,2013-08-01 23:55:00
5:15 PM,64.4,55.4,73,30.07,10.0,WSW,4.6,-,N/A,,Scattered Clouds,240,2013-08-02 00:15:00
5:35 PM,64.4,55.4,73,30.07,10.0,WSW,9.2,-,N/A,,Mostly Cloudy,240,2013-08-02 00:35:00
5:55 PM,64.4,55.4,73,30.07,10.0,WSW,8.1,-,N/A,,Scattered Clouds,250,2013-08-02 00:55:00
6:15 PM,62.6,55.4,77,30.07,10.0,WSW,9.2,-,N/A,,Mostly Cloudy,250,2013-08-02 01:15:00
6:35 PM,62.6,55.4,77,30.08,10.0,Calm,Calm,-,N/A,,Partly Cloudy,0,2013-08-02 01:35:00
6:55 PM,62.6,55.4,77,30.08,10.0,Calm,Calm,-,N/A,,Mostly Cloudy,0,2013-08-02 01:55:00
7:15 PM,62.6,55.4,77,30.08,10.0,Calm,Calm,-,N/A,,Mostly Cloudy,0,2013-08-02 02:15:00
7:35 PM,62.6,55.4,77,30.08,10.0,Calm,Calm,-,N/A,,Mostly Cloudy,0,2013-08-02 02:35:00
7:55 PM,62.6,55.4,77,30.08,10.0,Calm,Calm,-,N/A,,Mostly Cloudy,0,2013-08-02 02:55:00
8:15 PM,62.6,55.4,77,30.08,10.0,Calm,Calm,-,N/A,,Mostly Cloudy,0,2013-08-02 03:15:00
8:35 PM,62.6,55.4,77,30.08,10.0,Calm,Calm,-,N/A,,Mostly Cloudy,0,2013-08-02 03:35:00
8:55 PM,62.6,55.4,77,30.09,10.0,Calm,Calm,-,N/A,,Mostly Cloudy,0,2013-08-02 03:55:00
9:15 PM,62.6,55.4,77,30.09,10.0,Calm,Calm,-,N/A,,Mostly Cloudy,0,2013-08-02 04:15:00
9:35 PM,62.6,55.4,77,30.09,10.0,West,5.8,-,N/A,,Mostly Cloudy,270,2013-08-02 04:35:00
9:55 PM,62.6,55.4,77,30.09,10.0,Calm,Calm,-,N/A,,Mostly Cloudy,0,2013-08-02 04:55:00
10:15 PM,62.6,55.4,77,30.10,10.0,West,3.5,-,N/A,,Mostly Cloudy,270,2013-08-02 05:15:00
10:35 PM,60.8,55.4,82,30.10,10.0,Calm,Calm,-,N/A,,Mostly Cloudy,0,2013-08-02 05:35:00
10:55 PM,60.8,55.4,82,30.10,10.0,WSW,5.8,-,N/A,,Scattered Clouds,250,2013-08-02 05:55:00
11:15 PM,60.8,55.4,82,30.10,10.0,Calm,Calm,-,N/A,,Mostly Cloudy,0,2013-08-02 06:15:00
11:35 PM,59.0,55.4,88,30.10,10.0,Calm,Calm,-,N/A,,Mostly Cloudy,0,2013-08-02 06:35:00
11:55 PM,59.0,55.4,88,30.10,10.0,Calm,Calm,-,N/A,,Mostly Cloudy,0,2013-08-02 06:55:00